Location: Wildlife_Club
(35.6000°N, 81.4330°W)
Time: 21:06:04
(UTC-04:00)

A-11 Canister half - Pass Details

Date: 02 July 2019
Orbit: 1514 x 1685 km, 47.2° (Epoch: 19 July)

Event Time Altitude Azimuth Distance (km) Brightness Sun altitude
Rises 13:44:55 0° 299° (WNW) 4,886 11.6 77.0°
Reaches altitude 10° 13:48:15 10° 304° (NW) 3,877 11.2 76.8°
Maximum altitude 13:57:52 53° 20° (NNE) 1,897 10.2 76.0°
Drops below altitude 10° 14:07:06 10° 96° (E) 3,738 11.1 75.0°
Sets 14:10:14 0° 101° (E) 4,701 11.5 74.7°
